TimeEST,TemperatureF,Dew PointF,Humidity,Sea Level PressureIn,VisibilityMPH,Wind Direction,Wind SpeedMPH,Gust SpeedMPH,PrecipitationIn,Events,Conditions,WindDirDegrees,DateUTC
12:53 AM,23.0,19.0,85,30.26,10.0,West,4.6,-,N/A,,Overcast,260,2001-01-01 05:53:00
1:53 AM,23.0,18.0,81,30.26,10.0,WSW,3.5,-,N/A,,Overcast,240,2001-01-01 06:53:00
2:53 AM,21.9,18.0,85,30.28,10.0,SW,6.9,-,N/A,,Overcast,230,2001-01-01 07:53:00
3:32 AM,21.2,17.6,86,30.23,10.0,WSW,5.8,-,N/A,,Overcast,240,2001-01-01 08:32:00
3:53 AM,21.9,18.0,85,30.29,10.0,SW,6.9,-,N/A,,Overcast,230,2001-01-01 08:53:00
4:53 AM,21.9,18.0,85,30.29,10.0,SW,5.8,-,N/A,,Overcast,220,2001-01-01 09:53:00
5:44 AM,21.2,17.6,86,30.26,10.0,Variable,5.8,-,N/A,,Overcast,0,2001-01-01 10:44:00
5:53 AM,21.0,18.0,88,30.32,10.0,SW,5.8,-,N/A,,Overcast,230,2001-01-01 10:53:00
6:53 AM,21.0,18.0,88,30.34,10.0,Calm,Calm,-,N/A,,Overcast,0,2001-01-01 11:53:00
7:53 AM,19.9,18.0,92,30.35,10.0,SW,4.6,-,N/A,,Overcast,220,2001-01-01 12:53:00
8:53 AM,19.9,18.0,92,30.35,9.0,SW,5.8,-,0.00,Snow,Light Snow,230,2001-01-01 13:53:00
9:53 AM,19.9,18.0,92,30.36,7.0,Variable,6.9,-,0.00,Snow,Light Snow,0,2001-01-01 14:53:00
10:53 AM,21.0,18.0,88,30.36,5.0,Variable,5.8,-,0.00,Snow,Light Snow,0,2001-01-01 15:53:00
11:53 AM,21.0,18.0,88,30.33,4.0,West,5.8,-,0.00,Snow,Light Snow,260,2001-01-01 16:53:00
12:53 PM,21.9,18.0,85,30.31,4.0,WSW,4.6,-,0.00,Snow,Light Snow,250,2001-01-01 17:53:00
1:53 PM,23.0,18.0,81,30.30,5.0,SW,4.6,-,0.00,Snow,Light Snow,230,2001-01-01 18:53:00
2:53 PM,23.0,18.0,81,30.30,6.0,SSW,5.8,-,0.00,Snow,Light Snow,210,2001-01-01 19:53:00
3:05 PM,24.8,17.6,74,30.25,6.0,SW,4.6,-,0.00,Snow,Light Snow,230,2001-01-01 20:05:00
3:13 PM,24.8,17.6,74,30.25,7.0,WSW,3.5,-,0.00,Snow,Light Snow,240,2001-01-01 20:13:00
3:27 PM,24.8,17.6,74,30.25,9.0,Variable,3.5,-,0.00,Snow,Light Snow,0,2001-01-01 20:27:00
3:35 PM,24.8,17.6,74,30.26,9.0,West,3.5,-,0.00,Snow,Light Snow,280,2001-01-01 20:35:00
3:53 PM,24.1,17.1,75,30.31,9.0,West,3.5,-,0.00,Snow,Light Snow,260,2001-01-01 20:53:00
4:53 PM,24.1,18.0,77,30.32,7.0,NW,3.5,-,0.00,Snow,Light Snow,320,2001-01-01 21:53:00
5:43 PM,24.8,17.6,74,30.28,9.0,WNW,4.6,-,0.00,Snow,Light Snow,290,2001-01-01 22:43:00
5:53 PM,24.1,17.1,75,30.33,7.0,NW,4.6,-,0.00,Snow,Light Snow,310,2001-01-01 22:53:00
6:10 PM,23.0,17.6,80,30.28,7.0,WNW,4.6,-,0.00,Snow,Light Snow,300,2001-01-01 23:10:00
6:19 PM,23.0,17.6,80,30.28,6.0,Variable,3.5,-,0.00,Snow,Light Snow,0,2001-01-01 23:19:00
6:53 PM,23.0,18.0,81,30.35,8.0,Calm,Calm,-,0.00,Snow,Light Snow,0,2001-01-01 23:53:00
7:53 PM,21.9,18.0,85,30.35,9.0,WSW,3.5,-,0.00,Snow,Light Snow,240,2001-01-02 00:53:00
8:16 PM,21.2,17.6,86,30.30,9.0,Calm,Calm,-,0.00,Snow,Light Snow,0,2001-01-02 01:16:00
8:45 PM,21.2,17.6,86,30.30,9.0,West,4.6,-,0.00,Snow,Light Snow,260,2001-01-02 01:45:00
8:53 PM,21.9,17.1,82,30.36,9.0,WSW,3.5,-,0.00,,Scattered Clouds,240,2001-01-02 01:53:00
9:32 PM,21.2,17.6,86,30.31,10.0,NW,3.5,-,N/A,,Overcast,320,2001-01-02 02:32:00
9:53 PM,21.0,17.1,85,30.37,10.0,Calm,Calm,-,N/A,,Mostly Cloudy,0,2001-01-02 02:53:00
10:18 PM,21.2,17.6,86,30.31,10.0,WSW,4.6,-,N/A,,Mostly Cloudy,250,2001-01-02 03:18:00
10:33 PM,21.2,17.6,86,30.32,10.0,WSW,3.5,-,N/A,,Overcast,240,2001-01-02 03:33:00
10:43 PM,19.4,17.6,93,30.32,10.0,Calm,Calm,-,N/A,,Overcast,0,2001-01-02 03:43:00
10:53 PM,19.9,17.1,89,30.38,10.0,SW,3.5,-,N/A,,Overcast,230,2001-01-02 03:53:00
11:53 PM,19.0,16.0,88,30.38,10.0,SW,4.6,-,N/A,,Overcast,220,2001-01-02 04:53:00